When you browse on this site, cookies collect data to enhance your experience and personalize the content and advertising you see.
Visit our Privacy Policy to learn more. By continuing to use the site, you agree to this use of cookies and data.

Hourly Weather Perth

Today, 6 August, Thursday

Time Temperature Precipitation Wind Pressure Humidity
00:00 +12°C° 0 mm 2 mps 767 mmHg 79%
01:00 +12°C° 0 mm 2 mps 767 mmHg 82%
02:00 +10°C° 0 mm 2 mps 767 mmHg 84%
03:00 +10°C° 0 mm 3 mps 767 mmHg 85%
04:00 +10°C° 0 mm 3 mps 767 mmHg 86%
05:00 +10°C° 0 mm 3 mps 767 mmHg 87%
06:00 +10°C° 0 mm 3 mps 767 mmHg 86%
07:00 +10°C° 0 mm 3 mps 767 mmHg 85%
08:00 +10°C° 0 mm 3 mps 768 mmHg 85%
09:00 +12°C° 0 mm 3 mps 768 mmHg 77%
10:00 +13°C° 0 mm 3 mps 768 mmHg 70%
11:00 +16°C° 0 mm 3 mps 768 mmHg 63%
12:00 +16°C° 0 mm 3 mps 767 mmHg 60%
13:00 +17°C° 0 mm 3 mps 767 mmHg 57%
14:00 +18°C° 0 mm 3 mps 766 mmHg 53%
15:00 +17°C° 0 mm 2 mps 766 mmHg 56%
16:00 +17°C° 0 mm 2 mps 766 mmHg 58%
17:00 +16°C° 0 mm 2 mps 767 mmHg 61%
18:00 +14°C° 0 mm 3 mps 767 mmHg 65%
19:00 +13°C° 0 mm 3 mps 767 mmHg 69%
20:00 +12°C° 0 mm 4 mps 768 mmHg 73%
21:00 +11°C° 0 mm 4 mps 768 mmHg 72%
22:00 +11°C° 0 mm 4 mps 768 mmHg 71%
23:00 +11°C° 0 mm 4 mps 768 mmHg 71%

Tomorrow, 7 August, Friday

Time Temperature Precipitation Wind Pressure Humidity
00:00 +10°C° 0 mm 4 mps 768 mmHg 72%
01:00 +10°C° 0 mm 4 mps 767 mmHg 73%
02:00 +8°C° 0 mm 4 mps 767 mmHg 75%
03:00 +8°C° 0 mm 4 mps 767 mmHg 76%
04:00 +8°C° 0 mm 4 mps 767 mmHg 77%
05:00 +8°C° 0 mm 4 mps 767 mmHg 78%
06:00 +8°C° 0 mm 4 mps 767 mmHg 78%
07:00 +8°C° 0 mm 4 mps 767 mmHg 78%
08:00 +8°C° 0 mm 4 mps 767 mmHg 78%
09:00 +10°C° 0 mm 4 mps 767 mmHg 72%
10:00 +12°C° 0 mm 5 mps 767 mmHg 65%
11:00 +14°C° 0 mm 5 mps 767 mmHg 59%
12:00 +15°C° 0 mm 5 mps 766 mmHg 58%
13:00 +15°C° 0 mm 5 mps 765 mmHg 56%
14:00 +17°C° 0 mm 4 mps 764 mmHg 55%
15:00 +17°C° 0 mm 4 mps 764 mmHg 57%
16:00 +15°C° 0 mm 4 mps 764 mmHg 60%
17:00 +16°C° 0 mm 3 mps 764 mmHg 62%
18:00 +14°C° 0 mm 3 mps 764 mmHg 63%
19:00 +14°C° 0 mm 4 mps 764 mmHg 64%
20:00 +13°C° 0 mm 4 mps 764 mmHg 64%
21:00 +13°C° 0 mm 4 mps 763 mmHg 62%
22:00 +13°C° 0 mm 5 mps 763 mmHg 60%
23:00 +13°C° 0 mm 5 mps 763 mmHg 58%

Day after tomorrow, 8 August, Saturday

Time Temperature Precipitation Wind Pressure Humidity
00:00 +13°C° 0 mm 6 mps 763 mmHg 58%
01:00 +11°C° 0 mm 6 mps 762 mmHg 57%
02:00 +11°C° 0 mm 6 mps 762 mmHg 57%
03:00 +11°C° 0 mm 6 mps 762 mmHg 57%
04:00 +11°C° 0 mm 6 mps 761 mmHg 56%
05:00 +10°C° 0 mm 6 mps 761 mmHg 56%
06:00 +10°C° 0 mm 7 mps 761 mmHg 57%
07:00 +10°C° 0 mm 7 mps 761 mmHg 57%
08:00 +10°C° 0 mm 7 mps 761 mmHg 58%
09:00 +12°C° 0 mm 7 mps 760 mmHg 55%
10:00 +13°C° 0 mm 8 mps 760 mmHg 53%
11:00 +16°C° 0 mm 8 mps 760 mmHg 50%
12:00 +17°C° 0 mm 8 mps 758 mmHg 49%
13:00 +18°C° 0 mm 8 mps 757 mmHg 48%
14:00 +20°C° 0 mm 8 mps 756 mmHg 46%
15:00 +20°C° 0 mm 7 mps 756 mmHg 48%
16:00 +19°C° 0 mm 6 mps 756 mmHg 49%
17:00 +19°C° 0 mm 6 mps 755 mmHg 51%
18:00 +19°C° 0 mm 6 mps 755 mmHg 49%
19:00 +18°C° 0 mm 7 mps 755 mmHg 46%
20:00 +18°C° 0 mm 7 mps 754 mmHg 44%
21:00 +18°C° 0 mm 7 mps 754 mmHg 44%
22:00 +18°C° 0 mm 7 mps 753 mmHg 45%
23:00 +18°C° 0 mm 7 mps 752 mmHg 45%

9 August, Sunday

Time Temperature Precipitation Wind Pressure Humidity
00:00 +16°C° 1.5 mm 7 mps 752 mmHg 57%
01:00 +15°C° 1.5 mm 7 mps 751 mmHg 69%
02:00 +14°C° 1.5 mm 7 mps 750 mmHg 80%
03:00 +13°C° 1 mm 9 mps 749 mmHg 79%
04:00 +13°C° 1 mm 10 mps 748 mmHg 78%
05:00 +13°C° 1 mm 12 mps 747 mmHg 77%
06:00 +13°C° 1.7 mm 11 mps 747 mmHg 81%
07:00 +13°C° 1.7 mm 11 mps 747 mmHg 84%
08:00 +13°C° 1.7 mm 11 mps 746 mmHg 87%
09:00 +14°C° 1 mm 10 mps 746 mmHg 84%
10:00 +16°C° 1 mm 9 mps 746 mmHg 81%
11:00 +16°C° 1 mm 9 mps 745 mmHg 78%
12:00 +17°C° 0.7 mm 10 mps 745 mmHg 74%
13:00 +17°C° 0.7 mm 10 mps 744 mmHg 69%
14:00 +17°C° 0.7 mm 11 mps 743 mmHg 65%
15:00 +17°C° 0.9 mm 10 mps 743 mmHg 68%
16:00 +16°C° 0.9 mm 9 mps 743 mmHg 70%
17:00 +15°C° 0.9 mm 9 mps 744 mmHg 73%
18:00 +15°C° 1.1 mm 8 mps 744 mmHg 75%
19:00 +15°C° 1.1 mm 7 mps 744 mmHg 76%
20:00 +14°C° 1.1 mm 6 mps 745 mmHg 78%
21:00 +14°C° 1.1 mm 6 mps 745 mmHg 78%
22:00 +14°C° 1.1 mm 5 mps 745 mmHg 79%
23:00 +14°C° 1.1 mm 5 mps 746 mmHg 79%

10 August, Monday

Time Temperature Precipitation Wind Pressure Humidity
00:00 +14°C° 1.5 mm 6 mps 746 mmHg 80%
01:00 +13°C° 1.5 mm 6 mps 746 mmHg 81%
02:00 +12°C° 1.5 mm 7 mps 746 mmHg 82%
03:00 +12°C° 1.1 mm 7 mps 746 mmHg 79%
04:00 +12°C° 1.1 mm 7 mps 747 mmHg 75%
05:00 +12°C° 1.1 mm 7 mps 747 mmHg 72%
06:00 +12°C° 0.3 mm 8 mps 747 mmHg 72%
07:00 +12°C° 0.3 mm 8 mps 748 mmHg 71%
08:00 +12°C° 0.3 mm 8 mps 748 mmHg 71%
09:00 +13°C° 0.5 mm 9 mps 748 mmHg 73%
10:00 +13°C° 0.5 mm 9 mps 748 mmHg 74%
11:00 +14°C° 0.5 mm 10 mps 748 mmHg 76%
12:00 +14°C° 0.6 mm 10 mps 748 mmHg 75%
13:00 +14°C° 0.6 mm 10 mps 748 mmHg 75%
14:00 +14°C° 0.6 mm 10 mps 748 mmHg 75%
15:00 +14°C° 0.7 mm 10 mps 749 mmHg 74%
16:00 +14°C° 0.7 mm 10 mps 750 mmHg 74%
17:00 +13°C° 0.7 mm 10 mps 750 mmHg 74%
18:00 +13°C° 0.4 mm 9 mps 751 mmHg 74%
19:00 +13°C° 0.4 mm 9 mps 752 mmHg 74%
20:00 +13°C° 0.4 mm 8 mps 752 mmHg 75%
21:00 +13°C° 0.2 mm 8 mps 753 mmHg 75%
22:00 +13°C° 0.2 mm 8 mps 753 mmHg 76%
23:00 +13°C° 0.2 mm 8 mps 754 mmHg 76%

11 August, Tuesday

Time Temperature Precipitation Wind Pressure Humidity
00:00 +13°C° 0.2 mm 8 mps 754 mmHg 77%
01:00 +13°C° 0.2 mm 8 mps 754 mmHg 77%
02:00 +13°C° 0.2 mm 8 mps 754 mmHg 77%
03:00 +14°C° 0.2 mm 7 mps 755 mmHg 77%
04:00 +14°C° 0.2 mm 7 mps 755 mmHg 77%
05:00 +14°C° 0.2 mm 7 mps 755 mmHg 78%
06:00 +14°C° 0.2 mm 7 mps 756 mmHg 78%
07:00 +14°C° 0.2 mm 6 mps 757 mmHg 78%
08:00 +14°C° 0.2 mm 6 mps 757 mmHg 79%
09:00 +15°C° 0.2 mm 6 mps 758 mmHg 77%
10:00 +15°C° 0.2 mm 6 mps 758 mmHg 74%
11:00 +16°C° 0.2 mm 7 mps 758 mmHg 72%
12:00 +16°C° 0.2 mm 7 mps 758 mmHg 71%
13:00 +16°C° 0.2 mm 6 mps 758 mmHg 70%
14:00 +16°C° 0.2 mm 6 mps 758 mmHg 69%
15:00 +16°C° 0.1 mm 6 mps 759 mmHg 70%
16:00 +15°C° 0.1 mm 5 mps 759 mmHg 72%
17:00 +15°C° 0.1 mm 5 mps 760 mmHg 73%
18:00 +14°C° 0.1 mm 5 mps 760 mmHg 76%
19:00 +14°C° 0.1 mm 4 mps 761 mmHg 79%
20:00 +13°C° 0.1 mm 4 mps 762 mmHg 82%
21:00 +12°C° 0 mm 3 mps 762 mmHg 83%
22:00 +12°C° 0 mm 3 mps 762 mmHg 84%
23:00 +11°C° 0 mm 3 mps 762 mmHg 85%
Show more